Tracking 20242 objects as of 24-Jan-2020
HD Live streaming from Space Station
objects crossing your sky now

ARIANE 5 DEB (SYLDA)

Track ARIANE 5 DEB (SYLDA) now!
10-day predictions


NORAD ID: 40943
Int'l Code: 2015-054D
Perigee: 145.1 km
Apogee: 6,422.8 km
Inclination: 6.3 °
Period: 157.4 minutes
Semi major axis: 9654 km
RCS: Unknown
Launch date: September 30, 2015
Source: France (FR)
Launch site: FRENCH GUIANA (FRGUI)

Note: This is SATELLITE DEBRIS
aabbcc
Your satellite tracking list
Your tracking list is empty




NASA's NSSDC Master Catalog

Two Line Element Set (TLE):
1 40943U 15054D   20024.12033944  .04638373 -28813-5  20800-2 0  9993
2 40943   6.3469  44.1177 3251072 355.9787   1.9428  9.15121027 56472
Source of the keplerian elements: AFSPC